Station Historical Data
Daily Summary for January 10, 2018 Units:  Both    English   Metric
« Previous Day
Next Day »
Daily Weekly Monthly Yearly Custom
  High: Low: Average:
Temperature: 48.6 °F /  9.2 °C 18.8 °F /  -7.3 °C 44 °F /  6.7 °C
Dew Point: 39.3 °F /  4.1 °C 15.3 °F /  -9.3 °C 37.3 °F /  2.9 °C
Humidity: 86% 58% 77%
Wind Speed: 10.0mph /  16.1km/h - 5.3mph /  8.5km/h
Wind Gust: 15.0mph /  24.1km/h - -
Wind- - South
Pressure: 30.31 in /  1026.3 hPa 30.06 in /  1017.8 hPa -
Precipitation: 0.00 in /  0 mm    
Historical Graphs
 
 
Tabular Data for January 10, 2018
Time Temperature Dew Point Pressure Wind Wind Speed Wind Gust Humidity Rainfall Rate (Hourly)
08:09 18.8 °F /  -7.3 °C 15.3 °F /  -9.3 °C 30.31in /  1026.3hPa Calm   3.0mph /  4.8km/h 86% 0.00in /  0mm
08:59 22.7 °F /  -5.2 °C 18.9 °F /  -7.3 °C 30.29in /  1025.6hPa SE 1.0mph /  1.6km/h 4.0mph /  6.4km/h 85% 0.00in /  0mm
09:49 28.3 °F /  -2.1 °C 20.7 °F /  -6.3 °C 30.28in /  1025.3hPa ESE 1.0mph /  1.6km/h 4.0mph /  6.4km/h 73% 0.00in /  0mm
12:09 39.1 °F /  3.9 °C 25.6 °F /  -3.6 °C 30.19in /  1022.2hPa East 1.0mph /  1.6km/h 3.0mph /  4.8km/h 58% 0.01in /  0.25mm
19:09 44.0 °F /  6.7 °C 39.2 °F /  4 °C 30.08in /  1018.5hPa SSW 6.0mph /  9.7km/h 8.0mph /  12.9km/h 83% 0.00in /  0mm
19:19 44.1 °F /  6.7 °C 39.0 °F /  3.9 °C 30.08in /  1018.5hPa South 6.0mph /  9.7km/h 9.0mph /  14.5km/h 82% 0.01in /  0.25mm
19:24 44.0 °F /  6.7 °C 38.9 °F /  3.8 °C 30.08in /  1018.5hPa South 7.0mph /  11.3km/h 8.0mph /  12.9km/h 82% 0.01in /  0.25mm
19:29 44.1 °F /  6.7 °C 39.0 °F /  3.9 °C 30.08in /  1018.5hPa South 4.0mph /  6.4km/h 9.0mph /  14.5km/h 82% 0.01in /  0.25mm
19:39 44.4 °F /  6.9 °C 39.2 °F /  4 °C 30.08in /  1018.5hPa South 5.0mph /  8km/h 10.0mph /  16.1km/h 82% 0.01in /  0.25mm
19:44 44.4 °F /  6.9 °C 39.2 °F /  4 °C 30.08in /  1018.5hPa South 5.0mph /  8km/h 10.0mph /  16.1km/h 82% 0.01in /  0.25mm
19:49 44.5 °F /  6.9 °C 39.3 °F /  4.1 °C 30.08in /  1018.5hPa South 6.0mph /  9.7km/h 11.0mph /  17.7km/h 82% 0.01in /  0.25mm
19:54 44.5 °F /  6.9 °C 39.0 °F /  3.9 °C 30.08in /  1018.5hPa South 5.0mph /  8km/h 8.0mph /  12.9km/h 81% 0.01in /  0.25mm
19:59 44.4 °F /  6.9 °C 38.9 °F /  3.8 °C 30.08in /  1018.5hPa SSE 8.0mph /  12.9km/h 9.0mph /  14.5km/h 81% 0.01in /  0.25mm
20:04 44.4 °F /  6.9 °C 38.9 °F /  3.8 °C 30.08in /  1018.5hPa South 5.0mph /  8km/h 9.0mph /  14.5km/h 81% 0.01in /  0.25mm
20:09 44.3 °F /  6.8 °C 38.8 °F /  3.8 °C 30.08in /  1018.5hPa South 4.0mph /  6.4km/h 8.0mph /  12.9km/h 81% 0.01in /  0.25mm
20:14 44.3 °F /  6.8 °C 38.8 °F /  3.8 °C 30.08in /  1018.5hPa South 5.0mph /  8km/h 9.0mph /  14.5km/h 81% 0.00in /  0mm
20:19 44.4 °F /  6.9 °C 38.9 °F /  3.8 °C 30.07in /  1018.2hPa SSW 3.0mph /  4.8km/h 11.0mph /  17.7km/h 81% 0.00in /  0mm
20:24 44.5 °F /  6.9 °C 39.0 °F /  3.9 °C 30.08in /  1018.5hPa South 5.0mph /  8km/h 11.0mph /  17.7km/h 81% 0.00in /  0mm
20:29 44.7 °F /  7.1 °C 38.9 °F /  3.8 °C 30.08in /  1018.5hPa South 10.0mph /  16.1km/h 12.0mph /  19.3km/h 80% 0.00in /  0mm
20:34 44.8 °F /  7.1 °C 39.0 °F /  3.9 °C 30.07in /  1018.2hPa South 6.0mph /  9.7km/h 12.0mph /  19.3km/h 80% 0.00in /  0mm
20:39 44.8 °F /  7.1 °C 39.0 °F /  3.9 °C 30.08in /  1018.5hPa South 6.0mph /  9.7km/h 10.0mph /  16.1km/h 80% 0.00in /  0mm
20:44 44.9 °F /  7.2 °C 38.8 °F /  3.8 °C 30.08in /  1018.5hPa South 6.0mph /  9.7km/h 13.0mph /  20.9km/h 79% 0.00in /  0mm
20:49 44.9 °F /  7.2 °C 38.8 °F /  3.8 °C 30.08in /  1018.5hPa South 6.0mph /  9.7km/h 13.0mph /  20.9km/h 79% 0.00in /  0mm
21:09 44.8 °F /  7.1 °C 38.4 °F /  3.6 °C 30.08in /  1018.5hPa South 5.0mph /  8km/h 11.0mph /  17.7km/h 78% 0.00in /  0mm
21:14 44.7 °F /  7.1 °C 38.3 °F /  3.5 °C 30.09in /  1018.8hPa South 3.0mph /  4.8km/h 7.0mph /  11.3km/h 78% 0.00in /  0mm
21:24 45.2 °F /  7.3 °C 38.7 °F /  3.7 °C 30.08in /  1018.5hPa SSW 4.0mph /  6.4km/h 12.0mph /  19.3km/h 78% 0.00in /  0mm
21:29 45.4 °F /  7.4 °C 38.6 °F /  3.7 °C 30.08in /  1018.5hPa SSE 6.0mph /  9.7km/h 11.0mph /  17.7km/h 77% 0.00in /  0mm
21:34 45.4 °F /  7.4 °C 38.6 °F /  3.7 °C 30.08in /  1018.5hPa SSW 7.0mph /  11.3km/h 11.0mph /  17.7km/h 77% 0.00in /  0mm
21:39 45.4 °F /  7.4 °C 38.3 °F /  3.5 °C 30.08in /  1018.5hPa SSE 8.0mph /  12.9km/h 14.0mph /  22.5km/h 76% 0.00in /  0mm
21:44 45.4 °F /  7.4 °C 38.3 °F /  3.5 °C 30.08in /  1018.5hPa South 3.0mph /  4.8km/h 9.0mph /  14.5km/h 76% 0.00in /  0mm
21:49 45.3 °F /  7.4 °C 38.2 °F /  3.4 °C 30.08in /  1018.5hPa South 6.0mph /  9.7km/h 10.0mph /  16.1km/h 76% 0.00in /  0mm
21:54 45.2 °F /  7.3 °C 38.1 °F /  3.4 °C 30.08in /  1018.5hPa South 5.0mph /  8km/h 14.0mph /  22.5km/h 76% 0.00in /  0mm
21:59 45.4 °F /  7.4 °C 38.3 °F /  3.5 °C 30.08in /  1018.5hPa South 5.0mph /  8km/h 14.0mph /  22.5km/h 76% 0.00in /  0mm
22:09 45.6 °F /  7.6 °C 38.5 °F /  3.6 °C 30.08in /  1018.5hPa South 5.0mph /  8km/h 13.0mph /  20.9km/h 76% 0.00in /  0mm
22:14 45.6 °F /  7.6 °C 38.5 °F /  3.6 °C 30.08in /  1018.5hPa South 5.0mph /  8km/h 12.0mph /  19.3km/h 76% 0.00in /  0mm
22:19 45.6 °F /  7.6 °C 38.5 °F /  3.6 °C 30.08in /  1018.5hPa South 5.0mph /  8km/h 8.0mph /  12.9km/h 76% 0.00in /  0mm
22:24 45.6 °F /  7.6 °C 38.5 °F /  3.6 °C 30.08in /  1018.5hPa South 7.0mph /  11.3km/h 12.0mph /  19.3km/h 76% 0.00in /  0mm
22:29 45.6 °F /  7.6 °C 38.5 °F /  3.6 °C 30.08in /  1018.5hPa South 6.0mph /  9.7km/h 12.0mph /  19.3km/h 76% 0.00in /  0mm
22:34 45.7 °F /  7.6 °C 38.6 °F /  3.7 °C 30.08in /  1018.5hPa SSW 7.0mph /  11.3km/h 13.0mph /  20.9km/h 76% 0.00in /  0mm
22:39 45.8 °F /  7.7 °C 38.3 °F /  3.5 °C 30.08in /  1018.5hPa South 6.0mph /  9.7km/h 11.0mph /  17.7km/h 75% 0.00in /  0mm
22:44 45.8 °F /  7.7 °C 38.3 °F /  3.5 °C 30.08in /  1018.5hPa South 6.0mph /  9.7km/h 12.0mph /  19.3km/h 75% 0.00in /  0mm
22:49 45.8 °F /  7.7 °C 38.3 °F /  3.5 °C 30.08in /  1018.5hPa South 5.0mph /  8km/h 11.0mph /  17.7km/h 75% 0.00in /  0mm
22:54 45.8 °F /  7.7 °C 38.3 °F /  3.5 °C 30.08in /  1018.5hPa South 4.0mph /  6.4km/h 12.0mph /  19.3km/h 75% 0.00in /  0mm
22:59 45.8 °F /  7.7 °C 38.0 °F /  3.3 °C 30.08in /  1018.5hPa South 5.0mph /  8km/h 12.0mph /  19.3km/h 74% 0.00in /  0mm
23:04 46.1 °F /  7.8 °C 38.3 °F /  3.5 °C 30.07in /  1018.2hPa South 5.0mph /  8km/h 11.0mph /  17.7km/h 74% 0.00in /  0mm
23:09 46.0 °F /  7.8 °C 38.2 °F /  3.4 °C 30.07in /  1018.2hPa South 5.0mph /  8km/h 11.0mph /  17.7km/h 74% 0.00in /  0mm
23:14 46.3 °F /  7.9 °C 38.5 °F /  3.6 °C 30.07in /  1018.2hPa South 5.0mph /  8km/h 10.0mph /  16.1km/h 74% 0.00in /  0mm
23:24 46.5 °F /  8.1 °C 38.3 °F /  3.5 °C 30.07in /  1018.2hPa SSW 7.0mph /  11.3km/h 13.0mph /  20.9km/h 73% 0.00in /  0mm
23:29 46.6 °F /  8.1 °C 38.4 °F /  3.6 °C 30.07in /  1018.2hPa South 6.0mph /  9.7km/h 13.0mph /  20.9km/h 73% 0.00in /  0mm
23:34 46.9 °F /  8.3 °C 38.7 °F /  3.7 °C 30.07in /  1018.2hPa South 9.0mph /  14.5km/h 14.0mph /  22.5km/h 73% 0.00in /  0mm
23:39 47.0 °F /  8.3 °C 38.8 °F /  3.8 °C 30.07in /  1018.2hPa South 6.0mph /  9.7km/h 14.0mph /  22.5km/h 73% 0.00in /  0mm
23:44 47.3 °F /  8.5 °C 39.1 °F /  3.9 °C 30.07in /  1018.2hPa SSW 7.0mph /  11.3km/h 13.0mph /  20.9km/h 73% 0.00in /  0mm
23:49 47.8 °F /  8.8 °C 39.2 °F /  4 °C 30.06in /  1017.8hPa South 4.0mph /  6.4km/h 14.0mph /  22.5km/h 72% 0.00in /  0mm
23:59 48.6 °F /  9.2 °C 39.3 °F /  4.1 °C 30.06in /  1017.8hPa South 8.0mph /  12.9km/h 15.0mph /  24.1km/h 70% 0.00in /  0mm
Buffalo, New York, USA
Compliments of Weather Underground - 1.25 mb